GUNLAK-WX Weather Reports


time (UTC)temp
F
wind
direction
speed
knots
gust
knots
rain 1hr
in
rain 24hr
in
rain mn
in
humidity
%
barometer
mb
20260509041614 46 157 4.3 0.0 0.00 0.00 0.00 55 979.4
20260509040152 46 153 3.5 0.0 0.00 0.00 0.00 55 979.4
20260509034614 47 172 3.5 0.0 0.00 0.00 0.00 50 980.3
20260509033130 47 170 3.5 0.0 0.00 0.00 0.00 48 981.0
20260509031614 48 163 4.3 0.0 0.00 0.00 0.00 48 981.0
20260509030148 49 168 4.3 0.0 0.00 0.00 0.00 48 981.0
20260509024613 49 159 4.3 0.0 0.00 0.00 0.00 33 981.0
20260509023131 50 159 4.3 0.0 0.00 0.00 0.00 41 981.3
20260509021614 51 167 4.3 0.0 0.00 0.00 0.00 41 981.2
20260509020144 51 167 3.5 0.0 0.00 0.00 0.00 41 981.2
20260509014612 52 191 1.7 0.0 0.00 0.00 0.00 43 980.9
20260509013127 52 222 1.7 0.0 0.00 0.00 0.00 43 980.9
20260509011613 53 265 1.7 0.0 0.00 0.00 0.00 43 980.9
20260509010141 54 274 2.6 0.0 0.00 0.00 0.00 43 980.9
20260509004611 55 284 2.6 0.0 0.00 0.00 0.00 33 980.5
20260509003130 56 270 3.5 0.0 0.00 0.00 0.00 32 981.9
20260509001612 57 274 2.6 0.0 0.00 0.00 0.00 32 981.9
20260509000156 58 276 3.5 0.0 0.00 0.00 0.00 32 981.9
20260508234614 59 274 5.2 0.0 0.00 0.00 0.00 24 981.1
20260508233134 60 270 6.1 0.0 0.00 0.00 0.00 23 981.7
20260508231616 60 268 6.1 0.0 0.00 0.00 0.00 23 981.7
20260508230139 61 270 6.1 0.0 0.00 0.00 0.00 23 981.7
20260508224615 61 273 7.0 0.0 0.00 0.00 0.00 22 981.7
20260508223134 62 279 7.8 0.0 0.00 0.00 0.00 20 982.7
20260508221616 61 279 7.8 0.0 0.00 0.00 0.00 20 982.6
20260508220141 62 278 7.8 0.0 0.00 0.00 0.00 20 982.6
20260508214615 62 278 8.7 0.0 0.00 0.00 0.00 21 983.2
20260508213133 62 271 8.7 0.0 0.00 0.00 0.00 22 982.6
20260508211616 63 257 8.7 0.0 0.00 0.00 0.00 22 982.6
20260508210145 63 255 8.7 0.0 0.00 0.00 0.00 22 982.6
20260508204616 63 252 8.7 0.0 0.00 0.00 0.00 27 982.9
20260508203134 63 250 8.7 0.0 0.00 0.00 0.00 28 982.5
20260508201616 63 246 8.7 0.0 0.00 0.00 0.00 28 982.5
20260508200142 63 241 7.8 0.0 0.00 0.00 0.00 28 982.5
20260508194616 63 236 7.0 0.0 0.00 0.00 0.00 25 982.8
20260508193131 63 238 7.8 0.0 0.00 0.00 0.00 25 982.8
20260508191615 64 247 7.8 0.0 0.00 0.00 0.00 25 982.8
20260508190139 63 233 7.0 0.0 0.00 0.00 0.00 25 982.8
20260508184615 63 236 7.0 0.0 0.00 0.00 0.00 28 983.4
20260508183135 62 240 7.8 0.0 0.00 0.00 0.00 29 983.0
20260508181615 62 243 7.8 0.0 0.00 0.00 0.00 29 982.9
20260508180147 62 240 7.8 0.0 0.00 0.00 0.00 29 982.9
20260508174616 61 239 7.8 0.0 0.00 0.00 0.00 32 984.0
20260508173134 61 244 7.8 0.0 0.00 0.00 0.00 32 984.0
20260508171615 61 239 7.8 0.0 0.00 0.00 0.00 32 984.0
20260508170141 60 243 7.8 0.0 0.00 0.00 0.00 32 984.0
20260508164615 60 241 7.0 0.0 0.00 0.00 0.00 35 984.1
20260508163134 59 235 7.0 0.0 0.00 0.00 0.00 35 984.4
20260508161615 58 231 6.1 0.0 0.00 0.00 0.00 35 984.4
20260508160146 57 234 5.2 0.0 0.00 0.00 0.00 35 984.4
20260508154616 56 230 4.3 0.0 0.00 0.00 0.00 45 985.3
20260508153136 55 209 4.3 0.0 0.00 0.00 0.00 53 984.4
20260508151616 54 205 4.3 0.0 0.00 0.00 0.00 53 984.4
20260508150146 53 210 3.5 0.0 0.00 0.00 0.00 53 984.4
20260508144616 53 205 3.5 0.0 0.00 0.00 0.00 62 984.5
20260508143133 52 203 4.3 0.0 0.00 0.00 0.00 60 984.6
20260508141616 52 196 3.5 0.0 0.00 0.00 0.00 60 984.6
20260508140154 51 192 3.5 0.0 0.00 0.00 0.00 63 984.4
20260508134616 50 186 3.5 0.0 0.00 0.00 0.00 73 984.4
20260508133130 48 185 3.5 0.0 0.00 0.00 0.00 73 984.3
20260508131616 47 185 4.3 0.0 0.00 0.00 0.00 73 984.3
20260508130150 45 183 3.5 0.0 0.00 0.00 0.00 73 984.3
20260508124616 44 185 3.5 0.0 0.00 0.00 0.00 83 983.5
20260508123134 43 192 3.5 0.0 0.00 0.00 0.00 83 984.3
20260508121615 42 186 3.5 0.0 0.00 0.00 0.00 83 984.3
20260508120207 41 175 1.7 0.0 0.00 0.00 0.00 83 984.3
20260508114615 39 174 1.7 0.0 0.00 0.00 0.00 86 983.8
20260508113137 38 175 1.7 0.0 0.00 0.00 0.00 82 984.4
20260508111615 38 153 1.7 0.0 0.00 0.00 0.00 82 984.5
20260508110141 37 155 3.5 0.0 0.00 0.00 0.00 82 984.5
20260508104617 37 151 3.5 0.0 0.00 0.00 0.00 71 983.5
20260508103135 38 146 3.5 0.0 0.00 0.00 0.00 74 984.6
20260508101618 38 151 3.5 0.0 0.00 0.00 0.00 74 984.6
20260508100142 39 142 2.6 0.0 0.00 0.00 0.00 74 984.6
20260508094617 39 130 2.6 0.0 0.00 0.00 0.00 73 983.8
20260508093131 39 120 2.6 0.0 0.00 0.00 0.00 75 984.5
20260508091618 39 132 2.6 0.0 0.00 0.00 0.00 75 984.5
20260508090146 39 126 2.6 0.0 0.00 0.00 0.00 75 984.5
20260508084617 39 120 2.6 0.0 0.00 0.00 0.00 80 984.0
20260508083135 39 129 1.7 0.0 0.00 0.00 0.00 84 983.8
20260508081617 39 173 2.6 0.0 0.00 0.00 0.00 84 983.8
20260508080149 39 164 3.5 0.0 0.00 0.00 0.00 84 983.8
20260508074618 39 167 2.6 0.0 0.00 0.00 0.00 87 984.7
20260508073136 40 174 3.5 0.0 0.00 0.00 0.00 87 984.7
20260508071616 40 169 2.6 0.0 0.00 0.00 0.00 87 984.7
20260508070148 40 168 2.6 0.0 0.00 0.00 0.00 87 984.7
20260508064616 40 172 2.6 0.0 0.00 0.00 0.00 85 984.3
20260508063132 41 174 3.5 0.0 0.00 0.00 0.00 85 984.7
20260508061616 41 173 2.6 0.0 0.00 0.00 0.00 85 984.7
20260508060208 41 164 2.6 0.0 0.00 0.00 0.00 85 984.7
20260508054615 41 170 1.7 0.0 0.00 0.00 0.00 83 985.4
20260508053136 42 177 2.6 0.0 0.00 0.00 0.00 84 985.1
20260508051615 42 171 3.5 0.0 0.00 0.00 0.00 84 985.1
20260508050150 42 177 3.5 0.0 0.00 0.00 0.00 84 985.1
20260508044615 42 177 3.5 0.0 0.00 0.00 0.00 82 985.5
20260508043131 43 202 1.7 0.0 0.00 0.00 0.00 80 984.8